STARLINK-33909, 63804

Orbit data source: Space-Track

STARLINK-33909, 63804 is a payload satellite owned by SpaceX/Seattle (US) in LEO that was launched on Sun, 04 May 2025 UTC via an FALCON 9 launch vehicle from the Air Force Eastern Test Range (AFETR). Payload-class satellites include a variety of spacecraft equipped with specific instruments for various scientific and technological missions. These include communications satellites like Starlink; space stations such as the ISS; scientific satellites like the Hubble; Earth observation satellites from companies like Planet Labs, Umbra, and HawkEye 360; GPS; miniature CubeSats for education and research; and military/defense satellites.

Loading next visibility...
Identifier
63804, 2025-092A
Orbit
LEO
Country
Flag of USUS
Related business
Manufacturer
SpaceX/Seattle
Mission
Operational Commercial Communications
Bus & Motor
STARLINK V2MO, Unknown motor
Mass
575 kg wet, ~530 kg dry
Launch date (UTC)
2025-05-04 (10 months ago)
Launch vehicle
FALCON 9
Launch site
Air Force Eastern Test Range (AFETR)
Object type
Payload
Rocket body
Debris
Shape & HBR
Box + 2 Pan, 17.7 m
Radar Cross Section
36.964 m², Large (>1 m²)

Expand to show TLE details & history
Last TLE update: 8 hours ago

TLE from 8 hours ago
0 STARLINK-33909
1 63804U 25092A   26068.32277394  .00037012  00000-0  13471-2 0  9999
2 63804  42.9960 175.0437 0001468 151.3355 208.7577 15.27595619 48550
Epoch: 2026-03-09T07:44Z
TLE epoch observation values (Epoch: 2026-03-09T07:44:47.668Z)
Latitude
-0.00005°
Longitude
-108.17234°
Altitude
483.66 km
Speed
7.625 km/s
True Right ascension
11h 40m 10s
True Declination
0° 00' 00"
Sunlit
Object was in full shadow at epoch
Visualization orbit readout
Latitude
Unknown
Longitude
Unknown
Altitude
Unknown
Speed
Unknown
Apparent Right ascension
Unknown
Apparent Declination
Unknown
Sunlit
N/A
Visualization observer readout
Local Sidereal Time
19:53:04
Azimuth
Unknown
Elevation
Unknown
Doppler factor
Unknown
Orbital elements
Apogee altitude
485.956 km
Perigee altitude
483.941 km
Semi-major axis
6,863.085 km
Eccentricity
0.00015
Inclination
42.996°
RAAN
175.0437°
Arg. of periapsis
151.3355°
True anomaly
208.74961°
Mean anomaly
208.7577°
Eccentric anomaly
208.75365°
Mean motion
3.81737 °/min
Orbital period
94.31 mins
BSTAR
0.0013471
Loading maneuver chart data...
Computing Atmospheric mass density...
Loading historical data...
Loading historical data...
Loading historical data...
Loading historical data...
Loading historical data...
Loading historical data...
Loading historical data...

Documentation

Showing up to 5 results
|